Wind_Speed
7 6 6 5 4 3 4 4 4 4 3 3 2 1 1 1 1 3 3 3 3 3 4 4 5 6 6 7 8 9 8 8 8 8 8 8 7 7 6 7 8 8 9 9 9 10 10 10 10
8 7 6 6 5 5 5 4 4 4 4 3 2 2 2 2 3 4 4 4 5 5 6 6 6 7 7 8 9 9 9 9 9 9 9 9 9 8 8 9 9 10 10 10 10 11 11 11 11
7 7 6 6 7 7 6 5 5 4 4 3 2 3 3 3 4 5 6 6 6 7 7 7 8 8 9 9 10 10 10 10 10 9 9 9 10 10 10 10 11 11 11 11 12 12 12 12 13
7 6 6 6 8 8 8 7 5 5 4 4 4 3 4 4 5 6 7 7 7 8 8 9 9 9 10 11 11 11 12 11 10 10 10 11 11 11 12 12 12 13 13 13 13 14 14 14 14
7 6 6 7 8 9 8 7 6 6 5 5 5 4 4 5 7 7 8 8 9 9 9 10 10 10 10 11 11 12 12 12 11 11 12 12 13 13 13 14 14 14 15 14 15 15 16 16 16
8 7 6 7 8 9 9 8 7 6 5 6 6 6 6 6 7 8 9 9 9 9 9 10 11 11 12 12 12 12 12 12 12 13 13 14 14 15 15 16 17 16 16 16 17 17 17 17 17
9 8 8 8 9 8 8 8 7 7 6 7 7 6 7 8 8 9 9 10 11 11 10 11 12 13 13 13 13 13 13 13 13 14 14 15 16 17 17 18 18 18 18 18 18 18 18 18 19
9 8 8 8 9 8 8 8 7 7 8 7 7 7 8 9 9 9 10 11 12 13 12 12 13 14 14 14 14 14 14 14 15 15 16 17 18 19 19 19 18 19 19 19 19 19 20 20 20
9 8 8 9 9 9 9 8 8 9 9 9 9 9 9 10 10 11 12 12 13 13 13 13 14 14 15 15 15 16 16 16 16 17 18 19 20 21 21 20 20 20 20 20 20 20 21 21 20
8 8 9 9 9 10 10 10 9 10 10 10 10 10 10 11 11 13 13 13 14 14 14 15 16 16 16 16 17 17 18 18 19 19 19 20 21 22 21 21 21 21 20 21 21 21 21 20 20
8 9 9 9 9 10 10 11 11 12 11 10 11 11 12 13 13 14 15 15 15 16 15 16 17 17 18 18 19 20 20 21 21 22 22 22 23 23 22 22 22 22 21 21 22 22 22 22 21
8 8 8 9 9 9 10 11 12 13 12 12 12 12 13 14 14 15 15 15 16 17 17 18 18 18 19 20 20 21 22 23 23 24 24 24 24 24 23 23 22 22 23 23 24 23 23 23 22
7 7 8 8 8 9 10 11 12 13 14 13 13 13 14 15 15 14 15 16 17 17 18 19 19 20 20 21 21 22 23 24 25 26 25 26 26 25 24 24 24 24 25 24 24 24 24 23 23
7 7 8 9 8 9 9 10 11 12 13 13 13 14 15 15 15 15 16 17 18 18 20 20 20 21 22 22 23 24 24 25 26 26 26 26 26 26 25 24 24 24 25 25 25 24 24 24 24
6 6 7 8 8 8 9 11 12 12 13 13 14 15 15 16 16 16 18 18 19 20 21 21 21 22 23 24 25 26 26 26 26 27 27 27 27 27 26 25 25 26 25 25 26 26 24 24 25
4 5 7 8 9 10 10 12 12 12 13 14 14 15 16 17 17 18 18 19 20 21 22 22 22 22 23 24 25 25 26 27 27 27 27 27 27 27 27 27 26 26 26 26 26 26 25 25 25
3 5 7 9 9 10 11 12 12 12 12 13 14 15 17 18 18 18 18 19 21 23 23 24 24 24 25 26 26 27 27 28 29 29 29 29 29 29 29 28 28 28 28 27 26 26 26 26 26
5 6 8 9 10 9 10 11 12 12 13 14 16 16 18 19 18 19 19 21 23 24 25 25 26 27 28 28 28 29 29 30 30 30 30 30 29 29 29 29 29 29 29 28 28 27 26 26 27
5 6 8 9 10 10 10 11 12 13 14 15 17 18 18 19 20 21 22 23 24 25 25 26 28 28 30 29 30 30 30 31 31 31 31 31 30 30 30 31 29 29 29 28 28 27 26 26 27
6 7 7 8 10 10 11 11 12 13 14 15 17 18 20 20 22 23 23 24 25 26 27 27 29 30 30 30 30 30 30 31 31 31 31 30 30 31 31 31 30 28 28 29 28 26 26 27 27
7 7 8 9 10 11 11 12 12 13 14 16 17 19 20 21 22 23 24 26 27 27 27 27 28 29 29 29 29 28 29 29 29 30 29 29 29 29 29 29 28 26 26 26 26 26 27 27 27
7 9 9 10 10 11 12 13 14 14 15 16 17 19 21 22 24 24 25 26 27 27 27 27 28 29 29 28 27 27 28 28 28 28 28 28 28 27 27 26 25 24 24 24 24 25 25 26 26
7 9 9 10 10 11 12 12 14 15 16 16 18 19 21 21 22 23 24 26 26 27 27 28 27 27 27 26 26 26 27 27 27 28 28 27 27 27 25 25 25 24 23 23 23 24 24 24 25
8 9 9 9 10 11 12 11 13 15 16 17 18 19 20 21 22 23 24 26 26 27 27 27 27 26 25 25 26 26 26 26 26 26 25 25 25 24 24 23 23 22 21 22 22 23 23 23 23
9 9 10 10 10 12 13 13 14 15 16 16 18 19 20 21 22 23 24 25 26 26 26 26 25 25 25 25 26 26 25 25 25 23 22 22 22 22 21 22 22 21 20 21 21 21 22 22 23
9 9 10 11 11 13 14 13 14 15 16 17 18 20 20 21 22 23 24 25 25 25 25 25 25 26 26 26 26 25 25 24 23 22 21 22 21 21 21 20 20 19 19 20 21 21 21 21 21
11 11 11 12 13 13 13 15 16 16 16 18 19 19 20 21 22 23 24 24 24 24 25 25 25 26 26 26 24 23 23 23 22 21 21 20 20 19 19 18 17 18 18 18 19 20 20 21 21
11 12 12 12 12 12 13 15 18 18 18 19 19 20 20 21 22 23 24 24 24 25 25 25 25 26 26 25 24 22 22 21 21 21 20 19 18 18 17 16 17 17 17 17 18 19 19 20 20
12 12 13 13 13 13 14 17 19 19 19 20 20 20 21 21 22 23 24 24 24 24 24 24 25 25 25 24 23 21 21 21 21 20 19 18 18 17 16 15 17 17 16 17 17 18 18 18 19
13 14 14 14 14 14 16 19 19 19 20 21 21 21 21 22 22 23 23 23 23 24 24 24 24 25 24 23 22 21 21 21 20 19 18 17 15 15 15 15 16 16 16 16 17 17 17 17 18
Wind_Direction
203 199 197 196 192 195 203 203 190 185 192 192 216 268 310 326 342 340 332 325 312 302 298 305 306 312 309 305 297 295 294 295 293 295 293 292 292 292 298 301 301 297 294 292 289 286 287 284 280
207 209 208 203 193 219 226 221 213 211 214 213 243 287 313 328 314 309 307 311 309 305 300 300 305 310 309 305 301 299 298 294 293 292 290 291 292 293 294 296 296 296 293 290 288 287 285 284 282
213 216 212 204 206 215 227 229 230 232 225 233 253 282 305 319 317 307 305 305 307 309 306 299 305 308 309 307 303 301 301 296 290 289 290 293 291 291 292 295 295 294 294 291 288 288 285 284 283
216 220 219 211 220 225 231 236 234 232 232 243 263 286 296 299 310 312 312 308 311 310 310 305 303 306 308 308 304 304 302 299 292 292 292 294 292 292 292 293 294 291 290 289 288 286 283 284 285
217 220 215 218 225 231 234 239 245 247 241 244 255 277 296 304 304 306 313 316 314 309 310 306 303 306 309 309 307 304 301 295 292 296 294 295 294 293 291 292 293 291 287 286 287 287 286 284 282
216 224 216 220 231 235 239 243 245 236 240 248 260 269 288 303 312 311 311 314 312 310 313 308 305 307 309 306 306 304 300 296 293 297 295 293 294 291 291 292 292 289 287 286 286 286 286 285 281
210 214 217 223 232 241 243 244 242 236 238 249 261 274 289 291 302 309 312 312 312 312 310 309 306 305 306 305 303 302 298 295 294 294 294 293 293 292 291 289 289 287 285 284 284 283 282 282 282
212 213 217 229 234 243 245 244 241 244 249 257 265 272 288 291 297 305 310 312 311 309 303 303 302 301 302 302 302 300 298 294 293 293 293 292 293 292 289 288 286 286 283 282 282 281 281 280 281
212 209 217 229 234 240 242 246 245 251 252 257 267 280 286 293 296 304 307 306 307 309 303 298 297 297 297 298 299 297 296 294 292 292 292 292 289 289 288 289 286 285 282 282 282 281 281 281 281
214 209 220 229 233 241 244 248 251 254 254 260 268 279 284 290 297 301 303 301 304 306 304 298 295 295 296 295 294 293 293 292 291 291 292 293 292 289 287 288 287 285 283 282 282 283 282 283 281
216 216 225 232 239 246 249 250 255 258 260 264 273 281 283 288 295 298 297 297 301 302 301 299 296 294 294 292 292 293 291 291 292 291 289 290 291 289 286 286 285 284 283 282 281 283 282 281 279
218 228 233 239 245 252 255 255 256 260 264 270 277 281 283 290 295 294 294 298 300 299 296 296 294 293 294 294 293 291 290 291 292 293 290 289 289 289 286 286 285 286 285 285 283 281 279 278 278
222 238 241 247 252 258 259 261 262 265 268 276 280 282 285 289 292 293 295 296 298 298 296 295 293 292 294 294 294 291 291 293 293 293 290 289 288 287 287 288 286 286 286 283 284 282 278 276 277
228 239 249 253 256 261 265 268 265 271 270 276 280 283 285 286 287 291 294 296 296 296 295 294 295 294 293 293 293 292 292 293 293 292 290 289 287 286 287 288 286 286 286 285 286 283 279 277 277
241 248 258 261 265 267 270 269 270 276 276 276 277 279 282 283 285 288 292 294 296 297 297 295 295 294 295 293 293 294 293 294 293 292 290 287 285 285 286 286 286 286 285 285 285 285 283 280 278
248 254 266 269 268 271 273 274 275 281 282 278 279 281 284 284 287 291 293 296 298 299 298 296 295 295 296 295 295 295 293 292 292 292 292 288 285 286 286 286 286 284 283 282 283 285 282 281 277
271 258 266 276 273 274 273 273 276 281 282 279 280 282 282 287 291 292 292 296 298 298 297 296 296 297 297 296 295 294 294 293 292 292 292 288 285 285 286 286 285 283 282 281 283 283 282 280 278
262 267 270 275 277 277 278 278 278 278 281 281 282 285 287 288 291 294 295 298 299 298 298 298 297 297 296 295 294 293 293 294 294 292 290 286 285 285 285 285 284 282 281 282 282 281 281 281 279
269 270 275 278 280 280 281 283 282 281 282 285 287 289 291 292 294 297 299 300 300 300 300 300 299 298 297 296 295 293 293 295 294 291 289 286 287 286 286 286 283 281 281 282 281 281 279 278 278
292 290 289 284 282 281 283 286 287 286 287 292 294 295 298 299 298 297 298 300 300 301 301 301 301 302 300 299 297 294 294 294 293 291 290 289 288 286 285 284 283 281 282 283 280 279 277 275 276
300 290 288 285 290 289 287 288 290 294 295 296 298 299 301 302 301 300 301 302 302 301 302 303 303 303 302 301 300 297 296 294 292 291 290 288 286 285 284 284 282 281 282 282 279 277 277 276 276
295 289 289 291 297 298 297 296 292 295 299 300 298 299 301 303 304 304 304 304 305 306 305 304 304 304 305 304 302 300 298 297 294 291 289 287 285 285 286 285 283 283 282 281 278 276 277 277 276
296 301 302 299 298 301 301 303 300 293 297 301 302 301 302 303 306 306 306 306 307 308 308 308 308 307 309 310 307 304 302 299 296 292 289 286 285 285 284 284 284 284 283 281 281 280 278 277 277
308 310 315 314 313 311 304 298 297 302 302 304 305 304 304 305 305 305 306 307 308 309 309 310 311 310 310 311 310 308 306 304 300 296 291 288 285 284 285 286 287 285 284 282 282 281 280 280 279
311 318 326 323 317 306 306 301 297 304 306 305 306 307 307 307 306 306 307 308 309 309 310 312 313 312 312 312 312 310 309 307 305 301 295 292 289 286 285 285 287 287 284 282 283 284 283 284 284
309 315 314 309 306 303 306 304 303 305 306 309 310 311 310 309 309 310 311 312 312 311 312 314 315 315 315 315 314 312 311 310 307 304 301 296 292 289 287 285 285 284 283 283 286 287 285 284 288
309 311 312 313 313 310 309 309 309 310 310 309 311 315 313 313 313 313 313 314 314 316 316 315 315 316 317 316 315 314 312 310 307 306 304 300 294 292 290 289 288 286 286 287 288 291 290 289 288
311 311 316 320 313 311 312 312 311 312 309 309 311 314 316 316 316 317 316 316 316 319 320 318 317 317 317 317 316 314 313 311 308 310 308 304 300 297 295 290 289 289 290 292 293 295 293 292 290
317 316 316 315 310 306 307 306 312 312 311 311 311 312 314 316 316 317 318 317 317 320 321 321 322 322 320 320 319 316 314 313 312 311 308 305 302 300 295 296 297 294 295 293 292 293 292 292 292
314 316 316 315 314 310 310 308 313 312 313 312 313 312 313 315 317 319 320 319 320 321 322 323 324 324 323 324 322 318 315 315 314 313 311 308 305 303 302 305 305 300 299 298 298 296 293 292 293
Height
5893 5893 5894 5896 5897 5899 5898 5898 5898 5898 5897 5897 5896 5896 5895 5895 5895 5897 5893 5891 5890 5889 5888 5888 5888 5887 5887 5886 5885 5884 5883 5882 5881 5880 5879 5878 5878 5877 5876 5875 5875 5874 5874 5873 5873 5872 5872 5871 5870
5891 5892 5894 5895 5897 5898 5897 5897 5896 5896 5896 5896 5895 5895 5894 5894 5893 5892 5891 5890 5889 5888 5887 5887 5886 5886 5885 5884 5883 5882 5881 5880 5879 5878 5877 5876 5875 5875 5874 5873 5873 5872 5872 5871 5870 5870 5869 5869 5868
5889 5890 5892 5893 5895 5896 5896 5895 5895 5895 5895 5894 5894 5894 5893 5893 5892 5891 5890 5889 5887 5886 5886 5885 5885 5884 5883 5882 5881 5880 5879 5877 5876 5876 5875 5874 5873 5873 5872 5871 5870 5870 5869 5868 5868 5867 5866 5866 5865
5887 5889 5891 5893 5893 5893 5893 5893 5894 5894 5894 5893 5893 5893 5892 5891 5890 5890 5888 5887 5886 5885 5884 5883 5882 5882 5881 5880 5879 5878 5877 5876 5875 5874 5873 5872 5871 5870 5869 5869 5868 5867 5866 5866 5865 5864 5863 5863 5862
5886 5888 5890 5890 5890 5891 5891 5892 5892 5892 5892 5892 5892 5891 5891 5890 5889 5888 5887 5886 5885 5884 5882 5881 5880 5880 5879 5877 5877 5876 5875 5874 5873 5872 5871 5870 5869 5868 5867 5866 5865 5864 5863 5863 5862 5861 5860 5859 5859
5885 5887 5889 5889 5889 5889 5890 5890 5890 5890 5890 5891 5890 5890 5889 5888 5888 5887 5885 5884 5883 5882 5881 5880 5879 5878 5877 5876 5875 5874 5873 5871 5870 5869 5868 5867 5866 5865 5864 5863 5862 5861 5860 5859 5858 5857 5856 5856 5855
5884 5885 5886 5887 5887 5887 5888 5888 5889 5889 5889 5889 5889 5889 5888 5887 5886 5885 5884 5883 5881 5880 5879 5878 5877 5875 5874 5873 5872 5871 5870 5869 5867 5866 5865 5863 5862 5861 5860 5859 5858 5857 5856 5855 5854 5854 5852 5852 5851
5881 5883 5884 5885 5886 5886 5886 5886 5887 5887 5887 5887 5887 5887 5887 5886 5885 5884 5882 5881 5880 5878 5877 5876 5874 5873 5872 5871 5870 5869 5867 5866 5864 5863 5862 5860 5859 5857 5855 5854 5853 5852 5851 5850 5849 5849 5848 5847 5847
5879 5883 5883 5883 5884 5884 5884 5884 5885 5885 5885 5885 5885 5885 5885 5884 5883 5882 5881 5880 5878 5876 5875 5873 5872 5871 5869 5868 5866 5865 5864 5863 5861 5859 5858 5856 5855 5853 5851 5850 5849 5847 5846 5845 5845 5844 5843 5843 5842
5878 5880 5881 5881 5881 5882 5882 5882 5883 5883 5883 5883 5883 5883 5883 5882 5881 5880 5879 5878 5876 5874 5873 5871 5870 5868 5867 5865 5863 5862 5860 5859 5857 5855 5854 5852 5850 5848 5847 5846 5844 5843 5841 5840 5840 5839 5838 5837 5837
5876 5878 5878 5879 5879 5880 5880 5880 5881 5881 5881 5881 5881 5881 5881 5880 5879 5878 5877 5875 5874 5872 5870 5869 5867 5865 5864 5862 5860 5858 5856 5854 5853 5851 5849 5848 5846 5843 5842 5841 5839 5838 5836 5835 5834 5834 5833 5832 5831
5875 5875 5876 5877 5877 5878 5878 5878 5878 5879 5879 5879 5879 5879 5879 5877 5876 5875 5874 5872 5871 5869 5867 5865 5864 5862 5860 5858 5856 5854 5852 5850 5848 5846 5844 5843 5841 5839 5837 5835 5833 5832 5831 5830 5829 5828 5827 5826 5826
5873 5874 5874 5875 5875 5875 5876 5876 5876 5876 5877 5876 5876 5876 5876 5874 5874 5873 5871 5869 5868 5866 5864 5862 5860 5858 5856 5854 5851 5850 5848 5845 5843 5841 5839 5837 5835 5834 5832 5830 5828 5827 5826 5825 5823 5822 5822 5821 5820
5872 5873 5873 5873 5873 5874 5874 5874 5874 5874 5874 5874 5874 5873 5872 5871 5870 5869 5868 5866 5864 5862 5860 5857 5855 5854 5851 5849 5847 5845 5842 5840 5837 5835 5833 5831 5829 5828 5827 5825 5823 5822 5820 5819 5818 5816 5815 5815 5814
5871 5872 5872 5872 5872 5872 5872 5873 5872 5872 5872 5871 5871 5870 5869 5868 5866 5865 5864 5862 5860 5858 5855 5853 5851 5848 5846 5844 5842 5839 5837 5835 5832 5830 5827 5825 5823 5822 5820 5819 5817 5816 5814 5813 5812 5811 5810 5809 5808
5870 5871 5872 5871 5870 5870 5872 5871 5870 5869 5869 5868 5868 5867 5866 5864 5863 5861 5860 5858 5856 5853 5851 5848 5846 5843 5841 5838 5836 5833 5831 5829 5826 5824 5821 5819 5817 5815 5814 5813 5812 5810 5809 5807 5806 5805 5804 5802 5801
5870 5871 5871 5870 5868 5868 5869 5868 5867 5866 5866 5865 5865 5864 5863 5861 5860 5858 5856 5854 5851 5849 5846 5844 5841 5838 5835 5833 5830 5828 5825 5822 5820 5818 5815 5813 5811 5809 5808 5806 5805 5803 5802 5801 5800 5799 5797 5796 5795
5869 5869 5868 5868 5866 5866 5865 5865 5864 5864 5863 5862 5861 5860 5859 5858 5856 5853 5851 5849 5847 5844 5841 5839 5836 5832 5830 5827 5824 5821 5819 5816 5813 5811 5808 5806 5804 5802 5800 5799 5797 5796 5795 5794 5793 5791 5790 5789 5788
5866 5867 5866 5865 5864 5864 5863 5862 5862 5861 5860 5859 5858 5856 5855 5853 5851 5849 5846 5844 5841 5838 5836 5833 5830 5827 5823 5820 5817 5814 5811 5809 5806 5804 5801 5799 5797 5795 5793 5791 5789 5788 5787 5786 5785 5784 5783 5782 5781
5865 5865 5864 5863 5862 5861 5860 5860 5859 5858 5857 5855 5854 5852 5850 5849 5847 5844 5842 5839 5836 5833 5830 5827 5823 5820 5816 5813 5810 5807 5804 5801 5798 5796 5794 5792 5790 5788 5786 5784 5782 5780 5779 5778 5777 5776 5775 5775 5774
5863 5863 5862 5861 5860 5859 5858 5857 5856 5855 5853 5852 5850 5848 5846 5844 5841 5839 5836 5833 5830 5827 5824 5820 5817 5813 5809 5806 5802 5799 5796 5793 5791 5789 5786 5784 5782 5780 5778 5776 5774 5772 5771 5770 5769 5769 5767 5768 5767
5862 5861 5859 5858 5858 5857 5856 5855 5853 5851 5849 5848 5846 5844 5842 5839 5836 5833 5830 5827 5824 5821 5817 5814 5810 5806 5803 5799 5795 5792 5789 5786 5784 5781 5778 5776 5774 5772 5770 5768 5767 5766 5764 5763 5762 5761 5760 5760 5759
5860 5859 5857 5856 5856 5855 5853 5853 5850 5847 5845 5843 5842 5839 5837 5834 5831 5828 5825 5822 5818 5815 5811 5808 5804 5800 5796 5793 5789 5785 5782 5779 5776 5773 5771 5769 5767 5765 5763 5762 5760 5759 5757 5756 5755 5754 5753 5752 5752
5858 5857 5856 5854 5854 5853 5851 5850 5848 5844 5842 5840 5838 5835 5832 5829 5826 5823 5820 5817 5813 5810 5806 5802 5798 5794 5790 5787 5782 5779 5775 5772 5768 5766 5763 5761 5759 5757 5756 5755 5753 5752 5750 5750 5749 5747 5746 5745 5744
5856 5856 5856 5855 5854 5852 5848 5846 5845 5841 5839 5836 5834 5831 5828 5825 5822 5818 5815 5811 5808 5804 5800 5796 5792 5788 5784 5780 5776 5772 5769 5765 5761 5759 5756 5754 5752 5751 5750 5748 5747 5745 5744 5743 5742 5741 5740 5739 5737
5854 5854 5854 5853 5851 5849 5845 5842 5841 5838 5835 5833 5830 5827 5824 5820 5817 5813 5810 5806 5802 5798 5794 5790 5786 5782 5778 5774 5770 5766 5762 5758 5755 5752 5750 5748 5746 5745 5744 5742 5741 5739 5738 5737 5736 5734 5733 5732 5730
5852 5851 5850 5849 5846 5844 5842 5839 5836 5834 5832 5829 5826 5823 5820 5816 5812 5809 5805 5801 5797 5793 5789 5785 5781 5777 5772 5769 5765 5761 5757 5753 5750 5747 5745 5742 5741 5739 5738 5736 5735 5733 5732 5731 5730 5728 5727 5725 5724
5851 5849 5847 5845 5843 5842 5840 5837 5834 5831 5828 5826 5822 5819 5816 5812 5808 5804 5800 5796 5792 5788 5784 5780 5775 5771 5767 5763 5759 5756 5752 5749 5745 5742 5740 5738 5736 5734 5733 5731 5730 5728 5727 5725 5724 5723 5721 5719 5717
5848 5846 5844 5842 5840 5839 5837 5836 5830 5827 5824 5822 5818 5815 5811 5808 5804 5800 5796 5792 5788 5784 5779 5775 5771 5767 5762 5758 5754 5751 5748 5744 5741 5738 5735 5733 5731 5729 5728 5726 5725 5723 5722 5720 5719 5717 5715 5713 5711
5845 5843 5841 5840 5837 5835 5833 5832 5826 5823 5820 5817 5814 5811 5807 5804 5800 5796 5792 5788 5784 5780 5776 5771 5767 5763 5758 5754 5751 5747 5744 5740 5737 5734 5731 5729 5727 5725 5724 5722 5720 5719 5717 5716 5714 5711 5709 5708 5705